Tracking 18816 objects as of 17-October-2017
HD Live streaming from Space Station
objects crossing your sky now

SKYNET 5B

Track SKYNET 5B now!
SKYNET 5B is classified as:


NORAD ID: 32294
Int'l Code: 2007-056B
Perigee: 35,777.1 km
Apogee: 35,809.0 km
Inclination: 0.1 °
Period: 1,436.1 minutes
Semi major axis: 42164 km
RCS: 14.1589 m2 (large)
Launch date: November 14, 2007
Source: United Kingdom (UK)
Launch site: FRENCH GUIANA (FRGUI)

Star One C1 is a C-, Ku-, and X-band telecommunications, multimedia and broadband internet satellite that will serve South America
aabbcc
Your satellite tracking list
Your tracking list is empty





NASA's NSSDC Master Catalog

Two Line Element Set (TLE):
1 32294U 07056B   17289.83868727 +.00000117 +00000-0 +00000-0 0  9993
2 32294 000.0716 003.8857 0003791 201.5806 147.1178 01.00274308036462
Source of the keplerian elements: AFSPC